Overview Statistics Trail Chart Weather Telemetry Raw packets
 

This is the latest recevied weather packets stored in our database for station/object KE6YLF. If no packets are shown the sender has not sent any weather packets the latest 10 day(s).

<< 99 100 101 102 103 104 105 >>
Time Temp. Humidity Pressure Rain* Wind** Luminosity Snow
1787945417 40° C 31% 1077.4 hPa 0 mm - - -
1787945112 40° C 31% 1077.5 hPa 0 mm - - -
1787944809 40° C 31% 1077.4 hPa 0 mm - - -
1787944514 40° C 31% 1077.4 hPa 0 mm - - -
1787944200 40.56° C 31% 1077.5 hPa 0 mm - - -
1787943899 40° C 32% 1077.6 hPa 0 mm - - -
1787943594 38.89° C 33% 1077.8 hPa 0 mm - - -
1787943289 39.44° C 32% 1077.7 hPa 0 mm - - -
1787942984 39.44° C 32% 1077.9 hPa 0 mm - - -
1787942680 39.44° C 32% 1077.9 hPa 0 mm - - -
1787942379 39.44° C 32% 1077.9 hPa 0 mm - - -
1787942074 38.33° C 34% 1078 hPa 0 mm - - -
1787941770 38.89° C 34% 1078 hPa 0 mm - - -
1787941468 38.33° C 34% 1078.1 hPa 0 mm - - -
1787941168 38.33° C 34% 1078.1 hPa 0 mm - - -
1787940863 38.33° C 34% 1078.2 hPa 0 mm - - -
1787940561 38.33° C 34% 1078.2 hPa 0 mm - - -
1787940260 37.78° C 35% 1078.3 hPa 0 mm - - -
1787939955 37.78° C 35% 1078.3 hPa 0 mm - - -
1787939654 37.78° C 35% 1078.6 hPa 0 mm - - -
1787939349 36.67° C 36% 1078.6 hPa 0 mm - - -
1787939044 37.22° C 36% 1078.5 hPa 0 mm - - -
1787938744 37.22° C 36% 1078.6 hPa 0 mm - - -
1787938440 36.67° C 36% 1078.7 hPa 0 mm - - -
1787938135 37.22° C 36% 1078.5 hPa 0 mm - - -

* Rain latest hour (hover to see other rain measurements)
** Current wind speed in m/s (hover to see current wind gust speed)